{"data":{"norad_id":53022,"intl_designator":"2022-076AN","name":"STARLINK-4216","alt_names":[],"object_type":"PAYLOAD","status":"ACTIVE","operator":null,"country":"US","launch_date":"2022-07-07","launch_site_code":"AFETR","launch_vehicle":null,"mission":null,"orbit_class":"UNKNOWN","rcs_meters":null,"size_class":null,"mass_kg":null,"dimensions":null,"purposes":["comms"],"wikipedia_slug":null,"has_3d_model":false,"image_url":null,"decayed_at":null,"tle_current":{"epoch":"2026-09-19T18:26:44.447136Z","epoch_age_seconds":132655,"freshness":"FRESH","line1":"1 53022U 22076AN  26262.76856999  .00000214  00000+0  17486-4 0  9992","line2":"2 53022  53.1596 281.0529 0001334  87.1391 272.9764 15.34384191232441","mean_motion":15.34384191,"eccentricity":0.0001334,"inclination_deg":53.1596,"raan_deg":281.0529,"arg_perigee_deg":87.1391,"mean_anomaly_deg":272.9764,"bstar":1.7486e-5,"rev_number":23244,"period_min":93.848725009446,"perigee_km":461.83765393388,"apogee_km":463.66280264639,"semimajor_km":6840.8872282901,"source":"CELESTRAK","updated_at":"2026-09-20T09:00:40.146189Z"}}}